Hourly Data Report for October 02, 2015

All times are specified in Local Standard Time (LST). Add 1 hour to adjust for Daylight Saving Time where and when it is observed.

ST LEONARD CS
NEW BRUNSWICK

47°09'28.050" N
67°49'55.014" W
245.00 m
810I001
71019
WIY

Download Data

Hourly Data (October 2015)
Hourly Data Report for October 2, 2015
Temp Definition
°C
Dew Point Temp Definition
°C
Rel Hum Definition
%
Wind Dir Definition
10's deg

Wind Spd Definition
km/h
Visibility Definition
km
Stn Press Definition
kPa
Hmdx Definition


Wind Chill Definition


Weather Definition


TIME
00:00 1.9 -0.2 86 34 7   99.87     LegendNANA
01:00 1.4 -0.2 89 35 8   99.87     LegendNANA
02:00 2.0 0.0 87 35 9   99.87     LegendNANA
03:00 2.1 -0.1 85 36 7   99.91     LegendNANA
04:00 1.8 -0.1 87 1 7   99.92     LegendNANA
05:00 1.2 -0.2 90 1 6   99.92     LegendNANA
06:00 0.9 -0.3 92 36 10   99.91     LegendNANA
07:00 0.4 -0.4 94 1 8   100.01     LegendNANA
08:00 1.4 0.1 91 36 8   100.03     LegendNANA
09:00 5.8 2.1 77 2 15   100.05     LegendNANA
10:00 8.0 3.1 71 1 16   100.06     LegendNANA
11:00 8.6 1.0 59 3 16   100.08     LegendNANA
12:00 8.5 2.0 64 2 12   100.10     LegendNANA
13:00 9.0 2.7 65 1 18   100.10     LegendNANA
14:00 10.0 2.9 61 35 11   100.06     LegendNANA
15:00 8.2 2.3 66 1 12   100.09     LegendNANA
16:00 8.5 2.9 68 1 12   100.09     LegendNANA
17:00 7.9 2.7 70 35 11   100.15     LegendNANA
18:00 6.3 3.0 80 2 16   100.21     LegendNANA
19:00 5.7 2.9 83 2 15   100.26     LegendNANA
20:00 5.2 3.0 86 1 11   100.32     LegendNANA
21:00 5.0 3.0 87 2 12   100.35     LegendNANA
22:00 4.6 2.8 88 2 9   100.38     LegendNANA
23:00 4.4 2.6 88 2 11   100.39     LegendNANA

Notes on Data Quality.

Legend

  • E = Estimated
  • M = Missing
  • NA = Not Available
  • ‡ = Partner data that is not subject to review by the National Climate Archives
Date modified: